Weather History for KPSP - January, 2013

Change the Weather History Date:

Saturday, January 12, 2013

  Actual Average Record
Temperature  
Mean Temperature 46 °F 57 °F  
Max Temperature 55 °F 69 °F 90 °F (1928)
Min Temperature 37 °F 46 °F 23 °F (1962)
Degree Days  
Heating Degree Days 19 8  
Month to date heating degree days 134 102  
Since 1 July heating degree days 435 488  
Cooling Degree Days 0 0  
Month to date cooling degree days 0 0  
Year to date cooling degree days 0 0  
Moisture  
Dew Point 16 °F    
Average Humidity 35    
Maximum Humidity 54    
Minimum Humidity 15    
Precipitation  
Precipitation 0.00 in 0.03 in 0.53 in (1937)
Month to date precipitation T 0.55  
Year to date precipitation T 0.55  
Since 1 July precipitation 1.22 3.35  
Snow  
Snow 0.00 in - - ()
Month to date snowfall 0.0  
Year to date snowfall 0.0  
Since 1 July snowfall 0.0  
Snow Depth 0.00 in    
Sea Level Pressure  
Sea Level Pressure 30.11 in    
Wind  
Wind Speed 4 mph (NW)    
Max Wind Speed 16 mph    
Max Gust Speed 21 mph    
Visibility 10 miles    
Events      
T = Trace of Precipitation, MM = Missing Value Source: NWS Daily Summary

Daily Weather History Graph

Daily Weather History Graph

Search for Another Location

Airport or City:

Trip Planner

Search our weather history database for the weather conditions in past years. The results will help you decide how hot, cold, wet, or windy it might be!

Date:

Astronomy

Jan. 12, 2013 Rise Set
Actual Time 6:51 AM PST 4:57 PM PST
Civil Twilight 6:24 AM PST 5:25 PM PST
Nautical Twilight 5:53 AM PST 5:55 PM PST
Astronomical Twilight 5:23 AM PST 6:25 PM PST
Moon 7:18 AM PST (1/12) 6:26 PM PST (1/12)
Length of Visible Light 11h 00m
Length of Day
10h 06m
New Moon, 2% of the Moon is Illuminated
Jan 12
New Moon
Jan 18
First Quarter
Jan 26
Full
Feb 3
Last Quarter
Feb 9
New

Hourly Weather History & Observations

Time (PST) Temp. Windchill Dew Point Humidity Pressure Visibility Wind Dir Wind Speed Gust Speed Precip Events Conditions
12:53 AM 46.9 °F - 24.1 °F 41% 30.04 in 10.0 mi NW 11.5 mph - N/A   Overcast
1:53 AM 46.9 °F - 24.1 °F 41% 30.05 in 10.0 mi NW 13.8 mph - N/A   Overcast
2:53 AM 46.9 °F - 21.9 °F 37% 30.06 in 10.0 mi Calm Calm - N/A   Overcast
3:53 AM 45.0 °F 43.5 °F 24.1 °F 44% 30.07 in 10.0 mi East 3.5 mph - N/A   Mostly Cloudy
4:53 AM 43.0 °F 40.3 °F 26.1 °F 51% 30.09 in 10.0 mi SSW 4.6 mph - N/A   Clear
5:53 AM 42.1 °F 39.2 °F 25.0 °F 51% 30.11 in 10.0 mi SW 4.6 mph - N/A   Clear
6:53 AM 37.9 °F 31.5 °F 23.0 °F 55% 30.14 in 10.0 mi NNW 9.2 mph - N/A   Clear
7:53 AM 41.0 °F 38.0 °F 24.1 °F 51% 30.16 in 10.0 mi ESE 4.6 mph - N/A   Clear
8:53 AM 46.0 °F - 21.9 °F 39% 30.16 in 10.0 mi Calm Calm - N/A   Clear
9:53 AM 50.0 °F - 10.0 °F 20% 30.17 in 10.0 mi Calm Calm - N/A   Clear
10:53 AM 51.1 °F - 9.0 °F 18% 30.16 in 10.0 mi Calm Calm - N/A   Clear
11:53 AM 53.1 °F - 9.0 °F 17% 30.12 in 10.0 mi Variable 3.5 mph - N/A   Partly Cloudy
12:53 PM 54.0 °F - 9.0 °F 17% 30.09 in 10.0 mi NNE 5.8 mph - N/A   Partly Cloudy
1:53 PM 54.0 °F - 8.1 °F 16% 30.09 in 10.0 mi Calm Calm - N/A   Clear
2:53 PM 54.0 °F - 7.0 °F 15% 30.08 in 10.0 mi Variable 3.5 mph - N/A   Clear
3:53 PM 54.0 °F - 8.1 °F 16% 30.07 in 10.0 mi SSE 5.8 mph - N/A   Partly Cloudy
5:53 PM 50.0 °F - 10.9 °F 21% 30.09 in 10.0 mi Calm Calm - N/A   Clear
6:53 PM 46.0 °F 42.5 °F 16.0 °F 30% 30.10 in 10.0 mi NW 6.9 mph - N/A   Clear
7:53 PM 44.1 °F - 16.0 °F 32% 30.11 in 10.0 mi Calm Calm - N/A   Clear
8:53 PM 43.0 °F - 12.9 °F 30% 30.12 in 10.0 mi Calm Calm - N/A   Clear
9:53 PM 39.0 °F 35.7 °F 14.0 °F 36% 30.14 in 10.0 mi NNW 4.6 mph - N/A   Clear
10:53 PM 39.0 °F 34.8 °F 16.0 °F 39% 30.14 in 10.0 mi NW 5.8 mph - N/A   Clear
11:53 PM 39.9 °F 36.7 °F 15.1 °F 36% 30.14 in 10.0 mi NW 4.6 mph - N/A   Clear